[[{"header":{"parameterUnit":"m.s-1","parameterCategory":1,"la1":30.2991,"la2":30.254,"lo1":-89.0895,"lo2":-89.0444,"dy":0.0017,"dx":0.0017,"nx":28,"ny":28,"refTime":"2023-08-02T03:00:00:Z","depth":0,"parameterNumber":2,"parameterNumberName":"U-component_of_WINDS"},"data":[0,0,0,0,0,0,0,0,0,0,0,0,0,0,0,0,0,0,0,0,0,0,0,0,0,0,0,0,0,0,0,0,0,0,0,0,0,0,0,0,0,0,0,0,0,0,0,0,0,0,0,0,0,0,0,0,0,0,1.7843,1.7843,0,1.7895,1.7896,1.7896,1.7879,1.7878,1.7877,1.7875,1.7927,1.793,1.7932,0,0,0,0,0,0,0,0,0,0,0,0,0,1.7724,1.7726,1.7843,1.7843,1.7844,1.7895,1.7896,1.7897,1.7879,1.7878,1.7876,1.7875,1.7926,1.7929,1.7932,0,0,0,0,0,0,0,0,0,0,0,0,0,1.7776,1.7727,1.7842,1.7841,1.7842,1.7895,1.7896,1.7897,1.7879,1.7878,1.7876,1.7874,1.7926,1.7929,1.7933,1.7989,0,0,1.7944,1.7945,0,0,0,0,0,0,0,0,1.7773,1.778,1.7841,1.7842,1.7842,1.7879,1.7873,1.7928,1.788,1.7865,1.7875,1.7873,1.7912,1.7917,1.7931,1.7992,1.7994,1.7944,1.7946,1.7948,1.7949,0,0,0,0,0,0,0,1.7769,1.7778,1.7863,1.7842,1.7843,1.7837,1.7843,1.7883,1.7898,1.7866,1.7865,1.7872,1.7912,1.7927,1.7932,1.7995,1.7944,1.7947,1.795,1.7951,1.8102,1.8103,0,0,0,0,0,0,1.7765,1.7775,1.7862,1.7865,1.7803,1.7841,1.7847,1.7869,1.7897,1.79,1.7873,1.7871,1.7922,1.7927,1.7933,1.7999,1.7948,1.7951,1.7953,1.81,1.8102,1.8104,0,0,0,0,0,0,1.7763,1.7773,1.786,1.782,1.783,1.7845,1.7869,1.7871,1.7885,1.7902,1.7904,1.7886,1.7921,1.7928,1.7975,1.8001,1.7953,1.7956,1.8098,1.8101,1.8103,1.8132,0,0,0,0,0,0,1.776,1.7773,1.7795,1.782,1.7832,1.7901,1.7871,1.7873,1.7892,1.7889,1.7915,1.7917,1.792,1.797,1.7979,1.8005,1.7959,1.8095,1.8099,1.8102,1.8129,1.8136,1.8141,0,0,0,0,0,1.7755,1.7802,1.7797,1.7807,1.7861,1.7903,1.791,1.7912,1.7894,1.7916,1.7927,1.7916,1.7997,1.7975,1.7985,1.8012,1.8094,1.8098,1.8102,1.8126,1.8134,1.8141,0,0,0,0,0,0,1.7779,1.7805,1.78,1.7856,1.7877,1.79,1.7928,1.7921,1.7948,1.7944,1.7946,1.7952,1.7999,1.8011,1.7985,1.8067,1.8042,1.8049,1.8058,1.8065,1.8071,1.8067,1.7962,0,0,0,0,0,1.7791,1.7824,1.7844,1.7892,1.7903,1.7914,1.7932,1.7932,1.7954,1.7963,1.7977,1.7998,1.8028,1.8048,1.8076,1.8131,1.8135,1.8155,1.8161,1.8166,1.8171,1.8198,1.8206,1.8117,1.8117,1.8117,0,0,1.7816,1.7834,1.7854,1.7897,1.7914,1.7946,1.7921,1.7957,1.7981,1.7968,1.8013,1.8024,1.8047,1.8098,1.8121,1.8109,1.8196,1.8171,1.8175,1.8177,1.8203,1.8211,1.8219,1.812,1.812,1.8119,0,0,1.7876,1.7895,1.7935,1.7952,1.7977,1.7984,1.7993,1.8017,1.8024,1.8069,1.8059,1.8087,1.8139,1.8155,1.817,1.8235,1.8226,1.8245,1.8276,1.8302,1.8309,1.8315,1.8336,1.8343,1.825,1.825,1.825,0,1.7903,1.7953,1.7956,1.7992,1.801,1.8,1.8039,1.8056,1.8089,1.8101,1.8088,1.8151,1.8166,1.8219,1.8234,1.8248,1.8257,1.8241,1.8308,1.8314,1.832,1.8339,1.8347,1.8252,1.8251,1.8251,1.8251,0,1.7983,1.8017,1.8046,1.8079,1.81,1.8137,1.8145,1.8166,1.8163,1.8171,1.8215,1.8233,1.8264,1.8277,1.8276,1.8329,1.832,1.8308,1.8282,1.833,1.8348,1.8356,1.8254,1.8254,1.8253,1.8253,0,0,1.806,1.8093,1.8103,1.8116,1.8143,1.8169,1.8205,1.8236,1.8252,1.8276,1.8304,1.8348,1.8335,1.8353,1.8353,1.8376,1.8423,1.836,1.8361,1.8369,1.8479,1.8487,1.8496,1.8418,1.8419,1.842,1.8476,0,1.8121,1.8185,1.8188,1.8245,1.8275,1.8266,1.8297,1.8316,1.8324,1.835,1.8358,1.8388,1.8371,1.8381,1.8404,1.8413,1.8445,1.8409,1.8442,1.8443,1.8434,1.8506,1.8514,1.8566,1.8484,1.8485,1.8486,0,1.82,1.8225,1.8286,1.8306,1.8319,1.8347,1.8374,1.8399,1.842,1.8423,1.8442,1.8438,1.8473,1.8448,1.8495,1.8471,1.8485,1.8491,1.8493,1.8494,1.8466,1.8506,1.8583,1.859,1.8498,1.8497,1.8496,0,1.8247,1.8296,1.8338,1.835,1.8376,1.8395,1.8406,1.8425,1.8443,1.8466,1.8476,1.8504,1.8518,1.8538,1.8541,1.8523,1.8587,1.8563,1.8589,1.8589,1.8602,1.86,1.8679,1.8615,1.8615,1.8614,1.8614,0,1.8313,1.835,1.8359,1.8384,1.8424,1.8427,1.8466,1.8476,1.8492,1.8518,1.8513,1.8537,1.8541,1.8565,1.8568,1.8605,1.8612,1.8614,1.8614,1.8614,1.8613,1.8621,1.8617,1.8617,1.8616,1.8616,1.8615,0,1.8371,1.8379,1.8423,1.8444,1.8449,1.8478,1.8494,1.8518,1.8525,1.8557,1.8565,1.8576,1.8604,1.861,1.8644,1.8645,1.8688,1.8686,1.8681,1.868,1.8705,1.8702,1.879,1.88,1.8731,1.8732,1.8733,0,1.8412,1.8439,1.8462,1.8479,1.8492,1.852,1.8537,1.854,1.8558,1.8582,1.8602,1.863,1.8653,1.8699,1.8708,1.8734,1.873,1.8759,1.8734,1.8731,1.8727,1.8725,1.8726,1.8763,1.8764,1.8765,1.8765,0,1.8482,1.8484,1.8509,1.8536,1.8556,1.8577,1.8597,1.8611,1.8617,1.8637,1.8666,1.8683,1.8717,1.8744,1.8769,1.878,1.8772,1.8773,1.878,1.8779,1.8774,1.8774,1.8692,1.8771,1.877,1.877,1.877,1.8769,1.8531,1.8554,1.8573,1.8601,1.8616,1.8634,1.8656,1.8666,1.869,1.8718,1.8719,1.875,1.8767,1.88,1.8812,1.8835,1.8826,1.8837,1.8839,1.8841,1.8842,1.8772,1.884,1.884,1.884,1.884,1.884,0,1.8598,1.861,1.8636,1.8663,1.8684,1.8677,1.8698,1.8716,1.8743,1.8761,1.8783,1.8815,1.884,1.8852,1.8877,1.8893,1.889,1.8899,1.8897,1.8899,1.885,1.884,1.8901,1.8901,1.8901,1.8901,1.8901,1.8901,1.8636,1.8674,1.8678,1.8722,1.8734,1.8764,1.8776,1.8792,1.8806,1.8842,1.8863,1.8871,1.8885,1.8911,1.8934,1.8936,1.8944,1.8954,1.8955,1.8909,1.8903,1.8897,1.8887,1.8957,1.8957,1.9002,1.9002,1.9002]},{"header":{"parameterUnit":"m.s-1","parameterCategory":1,"la1":30.2991,"la2":30.254,"lo1":-89.0895,"lo2":-89.0444,"dy":0.0017,"dx":0.0017,"nx":28,"ny":28,"refTime":"2023-08-02T03:00:00:Z","depth":0,"parameterNumber":3,"parameterNumberName":"V-component_of_WINDS"},"data":[0,0,0,0,0,0,0,0,0,0,0,0,0,0,0,0,0,0,0,0,0,0,0,0,0,0,0,0,0,0,0,0,0,0,0,0,0,0,0,0,0,0,0,0,0,0,0,0,0,0,0,0,0,0,0,0,0,0,2.5723,2.5723,0,2.5713,2.5713,2.5713,2.5647,2.5646,2.5644,2.5643,2.5633,2.5635,2.5636,0,0,0,0,0,0,0,0,0,0,0,0,0,2.5684,2.5686,2.5723,2.5723,2.5723,2.5713,2.5713,2.5713,2.5648,2.5646,2.5644,2.5642,2.5633,2.5634,2.5636,0,0,0,0,0,0,0,0,0,0,0,0,0,2.5691,2.5686,2.5723,2.5689,2.5686,2.5713,2.5713,2.5713,2.5648,2.5646,2.5643,2.5641,2.5632,2.5634,2.5636,2.5696,0,0,2.5642,2.5643,0,0,0,0,0,0,0,0,2.569,2.5692,2.5694,2.5691,2.5688,2.5679,2.5696,2.5707,2.5649,2.5662,2.5643,2.564,2.5651,2.5651,2.5654,2.5695,2.5695,2.5642,2.5643,2.5644,2.5644,0,0,0,0,0,0,0,2.569,2.5692,2.5719,2.5694,2.569,2.5674,2.5672,2.5698,2.567,2.5661,2.5656,2.5656,2.5648,2.5653,2.5654,2.5695,2.5642,2.5644,2.5645,2.5645,2.5782,2.5785,0,0,0,0,0,0,2.5694,2.5692,2.5719,2.5719,2.5683,2.5677,2.5675,2.5684,2.567,2.5665,2.5658,2.5653,2.5651,2.5651,2.5653,2.572,2.5644,2.5646,2.5647,2.578,2.5783,2.5786,0,0,0,0,0,0,2.5694,2.5698,2.572,2.5704,2.5706,2.568,2.5691,2.5685,2.5689,2.5667,2.5662,2.5667,2.5649,2.565,2.5685,2.5719,2.5647,2.5648,2.5777,2.5781,2.5784,2.5857,0,0,0,0,0,0,2.5693,2.5698,2.572,2.5705,2.5707,2.5753,2.5693,2.5687,2.5693,2.5686,2.5675,2.5671,2.5647,2.5683,2.5687,2.572,2.565,2.5774,2.5779,2.5783,2.5851,2.5862,2.5872,0,0,0,0,0,2.5692,2.5742,2.5722,2.5725,2.5735,2.5755,2.5756,2.5727,2.5696,2.5718,2.5704,2.5671,2.5715,2.5687,2.5691,2.5726,2.5772,2.5777,2.5783,2.5846,2.586,2.5872,0,0,0,0,0,0,2.5762,2.5739,2.5717,2.5763,2.5761,2.5744,2.5771,2.5743,2.575,2.5744,2.5708,2.5706,2.5746,2.5739,2.5708,2.5782,2.5738,2.5744,2.5784,2.5797,2.5808,2.5808,2.5651,0,0,0,0,0,2.5783,2.5801,2.578,2.5823,2.5823,2.5797,2.5805,2.5783,2.578,2.5779,2.5767,2.5765,2.5778,2.5788,2.5799,2.585,2.5846,2.5876,2.5886,2.5895,2.5901,2.5926,2.5939,2.5804,2.5804,2.5804,0,0,2.5826,2.5816,2.5829,2.5837,2.5832,2.5851,2.5797,2.582,2.5834,2.5782,2.5814,2.5805,2.5801,2.5844,2.5862,2.5839,2.5938,2.5902,2.591,2.5911,2.5934,2.5946,2.5958,2.5808,2.5807,2.5807,0,0,2.5914,2.5909,2.5943,2.594,2.5934,2.5916,2.5925,2.5911,2.5903,2.5934,2.5895,2.5911,2.5935,2.5933,2.5935,2.6021,2.5991,2.6026,2.6081,2.6106,2.6116,2.6125,2.6155,2.6166,2.6032,2.6032,2.6032,0,2.5968,2.5995,2.5964,2.5989,2.5993,2.5947,2.598,2.5979,2.5978,2.5981,2.5956,2.5984,2.5978,2.6019,2.604,2.6043,2.6051,2.6027,2.6117,2.6126,2.6134,2.6162,2.6173,2.6037,2.6036,2.6036,2.6035,0,2.6062,2.6081,2.611,2.6108,2.6115,2.6145,2.6117,2.6128,2.6106,2.6091,2.6123,2.6114,2.6121,2.613,2.6108,2.6168,2.6153,2.6124,2.6078,2.6152,2.6177,2.6188,2.6042,2.6041,2.604,2.6039,0,0,2.6194,2.6174,2.6185,2.6183,2.6172,2.6187,2.6214,2.6221,2.623,2.6231,2.6252,2.6273,2.6244,2.6247,2.6225,2.6247,2.6314,2.6214,2.6213,2.6232,2.6377,2.6399,2.6412,2.6294,2.6296,2.6298,2.6377,0,2.6277,2.6321,2.6293,2.6342,2.6359,2.6315,2.6338,2.6334,2.6321,2.6333,2.6319,2.6333,2.6295,2.6296,2.6317,2.6302,2.6343,2.6296,2.6313,2.6314,2.6314,2.6425,2.6449,2.6524,2.6387,2.6389,2.639,0,2.638,2.6384,2.6434,2.6419,2.6425,2.6446,2.645,2.6462,2.6457,2.6445,2.6448,2.642,2.6445,2.6401,2.6434,2.6403,2.6409,2.6403,2.6405,2.6404,2.6356,2.6427,2.6547,2.6558,2.6405,2.6404,2.6403,0,2.6469,2.6487,2.6519,2.6519,2.6503,2.6518,2.6513,2.6505,2.651,2.6513,2.6516,2.6523,2.6526,2.6532,2.6506,2.6477,2.6543,2.6497,2.6533,2.6534,2.6548,2.6548,2.6671,2.6554,2.6554,2.6554,2.6554,0,2.6565,2.6597,2.6558,2.6578,2.6612,2.658,2.6615,2.6604,2.6597,2.6614,2.6577,2.6593,2.6559,2.6572,2.6552,2.6582,2.6584,2.6575,2.6569,2.6578,2.6579,2.658,2.6574,2.6557,2.6556,2.6556,2.6555,0,2.667,2.6646,2.6677,2.6659,2.6655,2.6681,2.6665,2.6682,2.6666,2.6687,2.669,2.6665,2.6678,2.6653,2.6664,2.665,2.6692,2.6679,2.6694,2.6689,2.6726,2.6723,2.6853,2.6868,2.6744,2.6745,2.6746,0,2.6732,2.6755,2.6739,2.6746,2.6742,2.6756,2.6761,2.673,2.6737,2.6731,2.6749,2.6759,2.6765,2.6787,2.677,2.6777,2.6763,2.6808,2.6764,2.6771,2.6762,2.6761,2.6762,2.6817,2.6819,2.682,2.6821,0,2.6843,2.683,2.6838,2.6842,2.6849,2.6851,2.685,2.6859,2.6826,2.6835,2.6847,2.6852,2.6862,2.6872,2.6875,2.6868,2.6839,2.6835,2.6844,2.6852,2.6859,2.6855,2.6717,2.6832,2.6831,2.683,2.683,2.6829,2.6927,2.6945,2.6936,2.6946,2.6942,2.6942,2.6957,2.6942,2.6952,2.6956,2.6938,2.6954,2.6947,2.6948,2.6945,2.6957,2.6937,2.695,2.6953,2.6956,2.6961,2.6858,2.6958,2.6957,2.6957,2.6957,2.6957,0,2.7036,2.7027,2.7037,2.7036,2.7044,2.7016,2.7013,2.7022,2.7036,2.7032,2.7038,2.7052,2.7061,2.7045,2.7051,2.7064,2.7051,2.7067,2.7065,2.7064,2.698,2.6971,2.7077,2.7077,2.7077,2.7077,2.7077,2.7077,2.7093,2.7121,2.7107,2.7133,2.7124,2.7139,2.714,2.7139,2.7135,2.7152,2.7159,2.7148,2.7139,2.7144,2.7151,2.7146,2.7149,2.717,2.716,2.7082,2.707,2.7058,2.705,2.7171,2.7171,2.7242,2.7243,2.7244]}]]